Location: Colebrook
(42.0017°N, 73.0973°W)
Time: 10:57:32
(UTC-04:00)

A-11 Canister half - Visible Passes

Search period start: 25 October 2021 00:00
Search period end: 04 November 2021 00:00
Orbit: 1525 x 1684 km, 47.3° (Epoch: 24 October)

Date Brightness Start Highest point End Pass type
(mag) Time Alt. Az. Time Alt. Az. Time Alt. Az.
25 Oct 9.7 19:38:01 10° WNW 19:46:48 49° SW 19:55:42 10° SSE visible
25 Oct 11.1 21:46:57 10° WSW 21:50:03 12° WSW 21:53:12 10° SW visible
26 Oct 9.7 19:16:20 10° WNW 19:25:11 51° SW 19:34:08 10° SSE visible
26 Oct 11.1 21:24:40 10° W 21:28:29 13° WSW 21:32:22 10° SSW visible
27 Oct 9.6 18:54:39 10° WNW 19:03:34 54° SW 19:12:34 10° SE visible
27 Oct 11.1 21:02:32 10° W 21:06:55 14° WSW 21:11:21 10° SSW visible
28 Oct 9.6 18:32:57 10° WNW 18:41:56 56° SW 18:50:59 10° SE visible
28 Oct 11.1 20:40:29 10° W 20:45:21 16° SW 20:50:17 10° SSW visible
29 Oct 9.6 18:11:16 10° WNW 18:20:19 59° SW 18:29:23 10° SE visible
29 Oct 11.1 20:18:29 10° W 20:23:47 17° SW 20:29:07 10° SSW visible
30 Oct 11.1 19:56:32 10° W 20:02:12 18° SW 20:07:55 10° SSW visible
31 Oct 11.1 19:34:38 10° W 19:40:38 19° SW 19:46:41 10° SSW visible
01 Nov 11.1 19:12:45 10° W 19:19:03 21° SW 19:25:24 10° S visible
02 Nov 11.2 18:50:54 10° W 18:57:29 22° SW 19:04:06 10° S visible
03 Nov 11.2 18:29:04 10° W 18:35:54 24° SW 18:42:45 10° S visible
